Preview of NWS' New Version of Forecast
This preview is not operational and should not be used for support decisions.

Regional Weather Roundup (RWR)

Issued by National Weather Service (NWS)

                            
000
ASUS45 KABQ 210910
RWRNM 
NEW MEXICO REGIONAL WEATHER ROUNDUP
NATIONAL WEATHER SERVICE ALBUQUERQUE NM
300 AM MDT SAT SEP 21 2019

NOTE: "FAIR" MEANS FEW OR NO CLOUDS BELOW 12,000 FEET AGL WITH NO
       SIGNIFICANT WEATHER OR OBSTRUCTIONS TO VISION.

      THIS PRODUCT IS RELEASED AS TWO VERSIONS.  ONE VERSION NEAR
      THE TOP OF THE HOUR CONTAINING PRELIMINARY DATA FROM ALBUQUERQUE
      AND OTHER STATIONS.  A FINAL VERSION WITH ADDITIONAL DATA IS 
      ISSUED ABOUT 10 MINUTES AFTER THE HOUR.
 
NMZ501-503-504-510>518-211000-
NORTHWEST PLATEAU/NORTHCENTRAL MOUNTAINS
  
CITY           SKY/WX    TMP DP  RH WIND       PRES   REMARKS
FARMINGTON     FAIR      46  20  35 NE6       30.06R                  
LOS ALAMOS     FAIR      61  25  24 CALM      30.17S                  
SANTA FE       FAIR      55  29  36 N3        30.13R                  
TAOS           FAIR      45  24  43 SE6       30.18R                  

$$
NMZ402-403-502-505>509-211000-
WESTCENTRAL MOUNTAINS/SOUTHWEST MOUNTAINS
  
CITY           SKY/WX    TMP DP  RH WIND       PRES   REMARKS
GALLUP         FAIR      44  26  49 NE5       30.15R                  
GRANTS         FAIR      45  35  69 NW9G16    30.18R                  
SILVER CITY    FAIR      60  41  49 NW10      30.09S                  

$$
NMZ407-409-411-412-211000-
SOUTHERN DESERTS
  
CITY           SKY/WX    TMP DP  RH WIND       PRES   REMARKS
DEMING         FAIR      62  51  67 SW5       30.02S                  
LAS CRUCES     FAIR      69  48  47 W9        30.01S                  
HOLLOMAN AFB   CLOUDY    65  49  55 E5        30.00S                  
ALAMOGORDO     MOCLDY    68  48  49 S5        29.99S                  
T OR C         FAIR      65  46  50 W8        30.03S                  

$$
NMZ519>523-211000-
CENTRAL VALLEYS/CENTRAL HIGHLANDS
  
CITY           SKY/WX    TMP DP  RH WIND       PRES   REMARKS
ALBUQUERQUE    FAIR      60  33  36 E6        30.08R                  
DOUBLE EAGLE   FAIR      56  32  39 CALM      30.11R                  
MORIARTY ARPT  FAIR      53  39  59 SE5       30.14S                  
CLINES CORNERS FAIR      53  30  41 W9        30.19R                  
BELEN          FAIR      58  35  42 CALM      30.08S                  
SOCORRO        FAIR      60  39  45 CALM      30.05R                  

$$
NMZ524>526-539-540-211000-
SOUTHCENTRAL MOUNTAINS
  
CITY           SKY/WX    TMP DP  RH WIND       PRES   REMARKS
RUIDOSO        FAIR      57  41  54 S6        30.19S                  

$$
NMZ527>531-211000-
NORTHEAST HIGHLANDS/NORTHEAST PLAINS
  
CITY           SKY/WX    TMP DP  RH WIND       PRES   REMARKS
LAS VEGAS      FAIR      54  41  61 SW5       30.13S                  
RATON          FAIR      49  41  74 N5        30.07R                  
CLAYTON        CLOUDY    64  62  93 SW12      30.01R                  

$$
NMZ532>537-211000-
EASTCENTRAL PLAINS
  
CITY           SKY/WX    TMP DP  RH WIND       PRES   REMARKS
TUCUMCARI      FAIR      68  63  84 S15       29.95S                  
CANNON AFB     FAIR      65  64  97 S9        30.04R                  
CLOVIS AIRPORT FAIR      63  62  97 SE7       30.04R                  

$$
NMZ028-029-033-538-211000-
SOUTHEAST PLAINS
  
CITY           SKY/WX    TMP DP  RH WIND       PRES   REMARKS
ROSWELL        FAIR      71  63  75 S8        29.97R                  
ARTESIA        FAIR      72  66  83 SE12      29.98S                  
CARLSBAD       FAIR      73  60  63 SE7       29.95S                  
HOBBS          FAIR      68  64  88 E5        30.01R                  


$$